TimeEST,TemperatureF,Dew PointF,Humidity,Sea Level PressureIn,VisibilityMPH,Wind Direction,Wind SpeedMPH,Gust SpeedMPH,PrecipitationIn,Events,Conditions,WindDirDegrees,DateUTC
12:15 AM,42.8,39.2,87,29.86,4.0,NNW,13.8,19.6,0.00,Rain,Light Rain,340,2012-11-07 05:15:00
12:54 AM,42.1,39.9,92,29.85,6.0,NNW,10.4,16.1,0.00,Rain,Light Rain,340,2012-11-07 05:54:00
1:54 AM,42.1,39.9,92,29.83,5.0,NW,8.1,-,0.02,Rain,Light Rain,310,2012-11-07 06:54:00
2:54 AM,42.1,39.9,92,29.83,10.0,NW,10.4,-,0.00,,Overcast,320,2012-11-07 07:54:00
3:01 AM,42.8,39.2,87,29.83,10.0,NW,9.2,-,N/A,,Overcast,320,2012-11-07 08:01:00
3:54 AM,42.1,39.9,92,29.81,10.0,NNW,8.1,-,N/A,,Overcast,330,2012-11-07 08:54:00
4:11 AM,42.8,39.2,87,29.82,10.0,NW,5.8,-,N/A,,Overcast,320,2012-11-07 09:11:00
4:54 AM,43.0,39.9,89,29.83,9.0,NW,8.1,-,N/A,,Overcast,310,2012-11-07 09:54:00
5:54 AM,43.0,41.0,93,29.84,4.0,NW,5.8,-,0.02,Rain,Rain,320,2012-11-07 10:54:00
7:54 AM,44.1,41.0,89,29.85,10.0,North,11.5,-,N/A,,Overcast,350,2012-11-07 12:54:00
8:52 AM,44.6,42.8,93,29.86,10.0,NNW,9.2,18.4,N/A,,Overcast,340,2012-11-07 13:52:00
8:54 AM,45.0,42.1,90,29.86,10.0,NNW,10.4,18.4,N/A,,Overcast,340,2012-11-07 13:54:00
9:45 AM,46.4,42.8,87,29.85,10.0,North,9.2,-,0.00,,Overcast,360,2012-11-07 14:45:00
9:54 AM,48.0,43.0,83,29.86,10.0,North,10.4,20.7,0.00,,Overcast,350,2012-11-07 14:54:00
10:54 AM,48.9,43.0,80,29.86,10.0,North,9.2,-,N/A,,Overcast,360,2012-11-07 15:54:00
11:54 AM,48.9,41.0,74,29.83,10.0,North,11.5,-,0.00,,Overcast,350,2012-11-07 16:54:00
12:46 PM,50.0,41.0,71,29.81,10.0,NNW,8.1,-,N/A,,Overcast,330,2012-11-07 17:46:00
12:54 PM,48.9,39.9,71,29.81,10.0,NNW,13.8,20.7,N/A,,Overcast,340,2012-11-07 17:54:00
1:06 PM,50.0,39.2,66,29.81,10.0,North,11.5,-,N/A,,Overcast,350,2012-11-07 18:06:00
1:54 PM,48.0,41.0,77,29.82,10.0,North,11.5,-,N/A,,Overcast,350,2012-11-07 18:54:00
2:09 PM,48.2,41.0,76,29.82,10.0,NW,13.8,-,N/A,,Overcast,320,2012-11-07 19:09:00
2:54 PM,46.9,39.9,77,29.83,10.0,NNW,10.4,19.6,N/A,,Overcast,340,2012-11-07 19:54:00
3:08 PM,46.4,39.2,76,29.83,10.0,NNW,11.5,-,N/A,,Overcast,340,2012-11-07 20:08:00
3:37 PM,46.4,41.0,81,29.84,7.0,NNW,8.1,-,N/A,,Overcast,330,2012-11-07 20:37:00
3:54 PM,46.9,39.9,77,29.84,10.0,NNW,5.8,-,N/A,,Overcast,340,2012-11-07 20:54:00
4:20 PM,46.4,41.0,81,29.85,10.0,NW,8.1,-,0.00,Rain,Light Rain,320,2012-11-07 21:20:00
4:54 PM,44.1,39.0,82,29.86,10.0,NNW,12.7,18.4,0.00,Rain,Light Rain,340,2012-11-07 21:54:00
5:54 PM,44.1,41.0,89,29.87,10.0,NW,6.9,-,0.01,Rain,Light Rain,310,2012-11-07 22:54:00
6:54 PM,43.0,39.0,86,29.88,10.0,NW,6.9,-,0.00,,Overcast,320,2012-11-07 23:54:00
7:54 PM,43.0,39.0,86,29.90,10.0,NNW,6.9,-,N/A,,Overcast,330,2012-11-08 00:54:00
8:54 PM,43.0,39.0,86,29.91,10.0,NNW,5.8,-,N/A,,Mostly Cloudy,330,2012-11-08 01:54:00
9:54 PM,43.0,37.9,82,29.92,10.0,NNW,5.8,-,0.00,Rain,Light Rain,340,2012-11-08 02:54:00
10:54 PM,44.1,36.0,73,29.92,10.0,North,8.1,-,0.00,,Overcast,350,2012-11-08 03:54:00
11:54 PM,42.1,36.0,79,29.92,10.0,NNW,6.9,-,N/A,,Mostly Cloudy,330,2012-11-08 04:54:00